sat.trackr.live / text

‹ back to catalog

STARLINK-1735

NORAD 46565 · 2020-070AK

PAYLOAD ACTIVE UNKNOWN

§ Identity

Operator
Country
US
Launch date
2020-10-06
Launch site
AFETR
Launch vehicle
Mass (kg)
RCS (m²)

Purposes: comms

External: N2YO · Heavens-Above · Gunter

§ Orbital elements

Epoch: 2026-07-09T05:35:04.645824Z

Period
87.96 min
Inclination
53.0131°
Eccentricity
0.0005896
Mean motion
16.37184566 rev/d
Perigee alt
169.4 km
Apogee alt
177.2 km
Semi-major
6,551.4 km
B*
6.1625e-4
RAAN
229.1412°
Arg perigee
325.1725°
Mean anomaly
34.8933°
Rev number
31,952

§ Raw data

STARLINK-17351 46565U 20070AK  26190.23269266  .06099311  12349-4  61625-3 0  99942 46565  53.0131 229.1412 0005896 325.1725  34.8933 16.37184566319522

JSON: /api/v1/satellites/46565 · /tle

For live sub-satellite position, see the globe view (requires WebGL).

§ Visibility from observer

Set your observer location to see the next 7 days of passes ≥ 10°. The values pass through the URL so the page stays shareable.

No JS? Fill the form by hand. The geolocation button needs JavaScript.